WJA195 CYYC-CYLW

Flight info

Callsign WJA195
Flight time 0h 56m
Altitude 36000
Route BOTAG Q894 BINVO DCT ROBTI DCT NORIP NORIP5
Aircraft B736/M-SDE2E3FGHIRWXY/LB1

Departure

Time 2026-05-05 04:17
Airport Calgary International Airport (CYYC)

Arrival

Time 2026-05-05 05:13
Airport Kelowna International Airport (CYLW)
Time Latitude Longitude Altitude Speed Heading
2026-05-05 03:56 51.12934 -114.00528 3555 ft 0 kts 53°
2026-05-05 04:08 51.12927 -114.00545 3552 ft 4 kts 60°
2026-05-05 04:09 51.12916 -114.00584 3558 ft 4 kts 81°
2026-05-05 04:09 51.12917 -114.00623 3558 ft 4 kts 120°
2026-05-05 04:09 51.12930 -114.00642 3551 ft 1 kts 177°
2026-05-05 04:12 51.12920 -114.00641 3553 ft 4 kts 178°
2026-05-05 04:12 51.12878 -114.00640 3558 ft 8 kts 181°
2026-05-05 04:12 51.12807 -114.00642 3558 ft 12 kts 181°
2026-05-05 04:12 51.12708 -114.00643 3558 ft 16 kts 179°
2026-05-05 04:13 51.12614 -114.00574 3558 ft 17 kts 96°
2026-05-05 04:13 51.12613 -114.00388 3558 ft 17 kts 90°
2026-05-05 04:13 51.12614 -114.00207 3558 ft 16 kts 87°
2026-05-05 04:13 51.12613 -114.00032 3558 ft 15 kts 93°
2026-05-05 04:14 51.12612 -113.99865 3558 ft 15 kts 93°
2026-05-05 04:14 51.12614 -113.99704 3558 ft 14 kts 91°
2026-05-05 04:14 51.12613 -113.99551 3559 ft 14 kts 90°
2026-05-05 04:14 51.12612 -113.99404 3559 ft 13 kts 89°
2026-05-05 04:15 51.12559 -113.99308 3557 ft 17 kts 178°
2026-05-05 04:15 51.12414 -113.99307 3559 ft 25 kts 180°
2026-05-05 04:15 51.12211 -113.99310 3557 ft 33 kts 180°
2026-05-05 04:15 51.11961 -113.99306 3559 ft 38 kts 179°
2026-05-05 04:16 51.11702 -113.99308 3560 ft 36 kts 179°
2026-05-05 04:16 51.11542 -113.99240 3560 ft 24 kts 93°
2026-05-05 04:16 51.11583 -113.99034 3558 ft 22 kts 359°
2026-05-05 04:16 51.11838 -113.99034 3560 ft 67 kts 360°
2026-05-05 04:17 51.12531 -113.99033 3564 ft 129 kts
2026-05-05 04:17 51.13574 -113.99055 3778 ft 158 kts
2026-05-05 04:17 51.14664 -113.99121 4621 ft 156 kts 359°
2026-05-05 04:17 51.15748 -113.99192 5327 ft 161 kts 349°
2026-05-05 04:18 51.16734 -114.00324 5537 ft 200 kts 304°
2026-05-05 04:18 51.17070 -114.02625 5771 ft 234 kts 270°
2026-05-05 04:18 51.16719 -114.05289 6106 ft 254 kts 259°
2026-05-05 04:18 51.16235 -114.08004 6801 ft 255 kts 258°
2026-05-05 04:19 51.15739 -114.10714 7533 ft 254 kts 258°
2026-05-05 04:19 51.15249 -114.13417 8309 ft 254 kts 259°
2026-05-05 04:19 51.14766 -114.16128 9116 ft 253 kts 260°
2026-05-05 04:19 51.14290 -114.18831 9944 ft 253 kts 261°
2026-05-05 04:20 51.13826 -114.21492 10667 ft 254 kts 261°
2026-05-05 04:20 51.13352 -114.24229 11338 ft 258 kts 262°
2026-05-05 04:20 51.12873 -114.26999 12064 ft 260 kts 262°
2026-05-05 04:20 51.12393 -114.29783 12787 ft 262 kts 263°
2026-05-05 04:21 51.11908 -114.32597 13520 ft 265 kts 263°
2026-05-05 04:21 51.11419 -114.35436 14226 ft 268 kts 263°
2026-05-05 04:21 51.10924 -114.38303 14861 ft 270 kts 264°
2026-05-05 04:21 51.10424 -114.41207 15457 ft 274 kts 264°
2026-05-05 04:22 51.09915 -114.44148 16091 ft 278 kts 265°
2026-05-05 04:22 51.09399 -114.47128 16764 ft 280 kts 265°
2026-05-05 04:22 51.08877 -114.50139 17392 ft 284 kts 266°
2026-05-05 04:22 51.08349 -114.53185 18035 ft 287 kts 267°
2026-05-05 04:23 51.07812 -114.56268 18662 ft 290 kts 267°
2026-05-05 04:23 51.07270 -114.59374 19213 ft 293 kts 268°
2026-05-05 04:23 51.06733 -114.62519 19768 ft 295 kts 269°
2026-05-05 04:23 51.06241 -114.65703 20131 ft 297 kts 269°
2026-05-05 04:24 51.05760 -114.68873 20150 ft 295 kts 270°
2026-05-05 04:24 51.05273 -114.72061 20169 ft 297 kts 269°
2026-05-05 04:24 51.04786 -114.75219 20176 ft 298 kts 269°
2026-05-05 04:25 51.03782 -114.81636 20176 ft 297 kts 269°
2026-05-05 04:25 51.03269 -114.84821 20186 ft 298 kts 269°
2026-05-05 04:25 51.02754 -114.88005 20145 ft 298 kts 268°
2026-05-05 04:25 51.02243 -114.91135 20179 ft 295 kts 268°
2026-05-05 04:26 51.01729 -114.94296 20166 ft 296 kts 268°
2026-05-05 04:26 51.01217 -114.97458 20186 ft 297 kts 268°
2026-05-05 04:26 51.00701 -115.00654 20176 ft 300 kts 268°
2026-05-05 04:26 51.00179 -115.03868 20177 ft 301 kts 268°
2026-05-05 04:27 50.99654 -115.07091 20194 ft 301 kts 268°
2026-05-05 04:27 50.99306 -115.09222 20172 ft 302 kts 267°
2026-05-05 04:27 50.98770 -115.12444 20171 ft 300 kts 267°
2026-05-05 04:27 50.98242 -115.15650 20160 ft 300 kts 268°
2026-05-05 04:28 50.97719 -115.18850 20154 ft 300 kts 267°
2026-05-05 04:28 50.97197 -115.22064 20157 ft 301 kts 268°
2026-05-05 04:28 50.96669 -115.25296 20138 ft 304 kts 267°
2026-05-05 04:28 50.96136 -115.28534 20176 ft 305 kts 267°
2026-05-05 04:29 50.95587 -115.31774 20093 ft 300 kts 266°
2026-05-05 04:29 50.95055 -115.34963 20121 ft 299 kts 266°
2026-05-05 04:29 50.94526 -115.38167 20149 ft 301 kts 266°
2026-05-05 04:29 50.93990 -115.41396 20122 ft 303 kts 266°
2026-05-05 04:30 50.93454 -115.44614 20124 ft 302 kts 266°
2026-05-05 04:30 50.92906 -115.47829 20111 ft 302 kts 265°
2026-05-05 04:30 50.92365 -115.51028 20102 ft 299 kts 266°
2026-05-05 04:30 50.91837 -115.54192 20114 ft 296 kts 266°
2026-05-05 04:31 50.91311 -115.57355 20128 ft 298 kts 266°
2026-05-05 04:31 50.90785 -115.60505 20104 ft 300 kts 266°
2026-05-05 04:31 50.90249 -115.63714 20100 ft 301 kts 266°
2026-05-05 04:31 50.89709 -115.66919 20069 ft 302 kts 265°
2026-05-05 04:32 50.89164 -115.70120 20091 ft 301 kts 266°
2026-05-05 04:32 50.88623 -115.73322 20069 ft 301 kts 266°
2026-05-05 04:32 50.88081 -115.76523 20034 ft 301 kts 265°
2026-05-05 04:32 50.87538 -115.79732 20051 ft 302 kts 265°
2026-05-05 04:33 50.86993 -115.82930 20079 ft 301 kts 265°
2026-05-05 04:33 50.86445 -115.86139 20038 ft 302 kts 264°
2026-05-05 04:33 50.85898 -115.89334 20046 ft 301 kts 265°
2026-05-05 04:33 50.85347 -115.92525 20032 ft 298 kts 264°
2026-05-05 04:34 50.84796 -115.95676 20062 ft 298 kts 265°
2026-05-05 04:34 50.84253 -115.98864 20054 ft 301 kts 265°
2026-05-05 04:34 50.83704 -116.02078 20060 ft 303 kts 264°
2026-05-05 04:34 50.83152 -116.05294 20032 ft 304 kts 264°
2026-05-05 04:35 50.82592 -116.08533 20040 ft 306 kts 264°
2026-05-05 04:35 50.82030 -116.11784 20034 ft 307 kts 264°
2026-05-05 04:35 50.81466 -116.15039 20001 ft 306 kts 263°
2026-05-05 04:35 50.80913 -116.18211 20050 ft 302 kts 264°
2026-05-05 04:36 50.80355 -116.21413 19976 ft 302 kts 264°
2026-05-05 04:36 50.79797 -116.24607 20013 ft 301 kts 264°
2026-05-05 04:36 50.79239 -116.27804 20020 ft 302 kts 264°
2026-05-05 04:36 50.78679 -116.31006 20021 ft 304 kts 264°
2026-05-05 04:37 50.78114 -116.34230 20020 ft 305 kts 264°
2026-05-05 04:37 50.77547 -116.37464 20021 ft 306 kts 264°
2026-05-05 04:37 50.76977 -116.40704 20013 ft 307 kts 264°
2026-05-05 04:37 50.76403 -116.43956 20020 ft 308 kts 264°
2026-05-05 04:38 50.75815 -116.47211 20006 ft 310 kts 262°
2026-05-05 04:38 50.75115 -116.50452 20021 ft 313 kts 259°
2026-05-05 04:38 50.74358 -116.53675 19997 ft 312 kts 258°
2026-05-05 04:38 50.73590 -116.56870 19951 ft 310 kts 258°
2026-05-05 04:39 50.72827 -116.60024 20017 ft 306 kts 259°
2026-05-05 04:39 50.72076 -116.63173 19995 ft 307 kts 259°
2026-05-05 04:39 50.71327 -116.66333 19986 ft 308 kts 258°
2026-05-05 04:39 50.70576 -116.69507 19990 ft 310 kts 258°
2026-05-05 04:40 50.69822 -116.72691 19966 ft 308 kts 258°
2026-05-05 04:40 50.69082 -116.75807 19972 ft 309 kts 258°
2026-05-05 04:40 50.68327 -116.78984 20016 ft 311 kts 257°
2026-05-05 04:40 50.67566 -116.82188 19995 ft 311 kts 258°
2026-05-05 04:41 50.66809 -116.85397 19984 ft 314 kts 258°
2026-05-05 04:41 50.66043 -116.88628 19978 ft 314 kts 258°
2026-05-05 04:41 50.65274 -116.91850 19947 ft 313 kts 257°
2026-05-05 04:41 50.64506 -116.95052 19967 ft 312 kts 258°
2026-05-05 04:42 50.63740 -116.98251 19969 ft 312 kts 258°
2026-05-05 04:42 50.62974 -117.01450 19955 ft 311 kts 258°
2026-05-05 04:42 50.62213 -117.04624 19955 ft 309 kts 258°
2026-05-05 04:42 50.61455 -117.07786 19914 ft 308 kts 258°
2026-05-05 04:43 50.60695 -117.10958 19961 ft 314 kts 258°
2026-05-05 04:43 50.59920 -117.14194 19958 ft 316 kts 258°
2026-05-05 04:43 50.59145 -117.17407 19940 ft 312 kts 258°
2026-05-05 04:43 50.58379 -117.20586 19915 ft 309 kts 258°
2026-05-05 04:44 50.57589 -117.23745 19973 ft 313 kts 257°
2026-05-05 04:44 50.56807 -117.26970 19931 ft 315 kts 258°
2026-05-05 04:44 50.56036 -117.30170 19899 ft 310 kts 258°
2026-05-05 04:44 50.55283 -117.33292 19945 ft 312 kts 257°
2026-05-05 04:45 50.54510 -117.36505 19955 ft 316 kts 257°
2026-05-05 04:45 50.53729 -117.39729 19937 ft 314 kts 258°
2026-05-05 04:45 50.52943 -117.42915 19865 ft 311 kts 257°
2026-05-05 04:45 50.52158 -117.46085 19934 ft 314 kts 258°
2026-05-05 04:46 50.51380 -117.49300 19919 ft 314 kts 257°
2026-05-05 04:46 50.50601 -117.52509 19916 ft 314 kts 257°
2026-05-05 04:46 50.49821 -117.55707 19919 ft 313 kts 257°
2026-05-05 04:46 50.49038 -117.58888 19919 ft 311 kts 257°
2026-05-05 04:47 50.48270 -117.62028 19916 ft 313 kts 257°
2026-05-05 04:47 50.47483 -117.65218 19875 ft 313 kts 257°
2026-05-05 04:47 50.46697 -117.68389 19923 ft 312 kts 257°
2026-05-05 04:47 50.45916 -117.71566 19926 ft 312 kts 257°
2026-05-05 04:48 50.45131 -117.74756 19899 ft 314 kts 257°
2026-05-05 04:48 50.44338 -117.77966 19904 ft 316 kts 257°
2026-05-05 04:48 50.43545 -117.81167 19889 ft 314 kts 257°
2026-05-05 04:48 50.42753 -117.84356 19909 ft 314 kts 257°
2026-05-05 04:49 50.41958 -117.87558 19898 ft 316 kts 257°
2026-05-05 04:49 50.41159 -117.90769 19866 ft 316 kts 257°
2026-05-05 04:49 50.40358 -117.93976 19885 ft 315 kts 257°
2026-05-05 04:49 50.39569 -117.97134 19888 ft 316 kts 256°
2026-05-05 04:50 50.38767 -118.00341 19891 ft 316 kts 256°
2026-05-05 04:50 50.37965 -118.03544 19887 ft 317 kts 257°
2026-05-05 04:50 50.37161 -118.06751 19878 ft 316 kts 256°
2026-05-05 04:50 50.36358 -118.09947 19920 ft 315 kts 257°
2026-05-05 04:51 50.35550 -118.13162 19882 ft 319 kts 256°
2026-05-05 04:51 50.34736 -118.16393 19873 ft 318 kts 256°
2026-05-05 04:51 50.33927 -118.19597 19887 ft 316 kts 256°
2026-05-05 04:51 50.33120 -118.22789 19899 ft 316 kts 256°
2026-05-05 04:52 50.32311 -118.25989 19882 ft 316 kts 256°
2026-05-05 04:52 50.31502 -118.29183 19881 ft 316 kts 257°
2026-05-05 04:52 50.30694 -118.32368 19894 ft 315 kts 256°
2026-05-05 04:52 50.29889 -118.35556 19897 ft 314 kts 257°
2026-05-05 04:53 50.29180 -118.38781 19885 ft 313 kts 260°
2026-05-05 04:53 50.28531 -118.42029 19887 ft 314 kts 261°
2026-05-05 04:53 50.27893 -118.45291 19836 ft 312 kts 261°
2026-05-05 04:53 50.27263 -118.48501 19881 ft 308 kts 261°
2026-05-05 04:54 50.26633 -118.51700 19905 ft 309 kts 261°
2026-05-05 04:54 50.25993 -118.54926 19896 ft 313 kts 261°
2026-05-05 04:54 50.25350 -118.58142 19884 ft 314 kts 261°
2026-05-05 04:54 50.24704 -118.61324 19810 ft 300 kts 261°
2026-05-05 04:55 50.24085 -118.64361 19723 ft 286 kts 261°
2026-05-05 04:55 50.23479 -118.67362 19069 ft 299 kts 261°
2026-05-05 04:55 50.22851 -118.70508 18613 ft 309 kts 260°
2026-05-05 04:55 50.22198 -118.73763 18105 ft 319 kts 257°
2026-05-05 04:56 50.21511 -118.77150 17792 ft 339 kts 256°
2026-05-05 04:56 50.20785 -118.80717 17369 ft 345 kts 255°
2026-05-05 04:56 50.20055 -118.84276 16894 ft 344 kts 255°
2026-05-05 04:56 50.19334 -118.87775 16727 ft 333 kts 257°
2026-05-05 04:57 50.18635 -118.91166 16566 ft 322 kts 256°
2026-05-05 04:57 50.17961 -118.94437 16430 ft 311 kts 256°
2026-05-05 04:57 50.17310 -118.97604 16307 ft 301 kts 256°
2026-05-05 04:57 50.16681 -119.00666 16193 ft 292 kts 257°
2026-05-05 04:58 50.16068 -119.03642 16061 ft 284 kts 257°
2026-05-05 04:58 50.15472 -119.06528 15947 ft 275 kts 256°
2026-05-05 04:58 50.14893 -119.09323 15842 ft 267 kts 258°
2026-05-05 04:58 50.14397 -119.12062 15690 ft 258 kts 261°
2026-05-05 04:59 50.13971 -119.14726 15449 ft 255 kts 262°
2026-05-05 04:59 50.13548 -119.17438 15189 ft 254 kts 260°
2026-05-05 04:59 50.13130 -119.20101 14934 ft 252 kts 261°
2026-05-05 04:59 50.12716 -119.22727 14672 ft 252 kts 261°
2026-05-05 05:00 50.12295 -119.25375 14399 ft 252 kts 260°
2026-05-05 05:00 50.11872 -119.28023 14132 ft 251 kts 261°
2026-05-05 05:00 50.11449 -119.30660 13871 ft 251 kts 260°
2026-05-05 05:00 50.11024 -119.33300 13599 ft 251 kts 261°
2026-05-05 05:01 50.10596 -119.35946 13309 ft 251 kts 261°
2026-05-05 05:01 50.10171 -119.38578 13032 ft 250 kts 260°
2026-05-05 05:01 50.09745 -119.41201 12749 ft 249 kts 261°
2026-05-05 05:01 50.09322 -119.43809 12485 ft 247 kts 260°
2026-05-05 05:02 50.08902 -119.46399 12217 ft 246 kts 261°
2026-05-05 05:02 50.08483 -119.48973 11955 ft 245 kts 261°
2026-05-05 05:02 50.08065 -119.51536 11691 ft 243 kts 261°
2026-05-05 05:02 50.07649 -119.54082 11433 ft 242 kts 259°
2026-05-05 05:03 50.07235 -119.56619 11174 ft 241 kts 259°
2026-05-05 05:03 50.06705 -119.59093 10896 ft 245 kts 242°
2026-05-05 05:03 50.05457 -119.60898 10667 ft 248 kts 212°
2026-05-05 05:03 50.03921 -119.62108 10430 ft 247 kts 207°
2026-05-05 05:04 50.02357 -119.63233 10184 ft 248 kts 207°
2026-05-05 05:04 50.00796 -119.64366 9929 ft 247 kts 208°
2026-05-05 05:04 49.99244 -119.65508 9668 ft 247 kts 208°
2026-05-05 05:04 49.97688 -119.66662 9396 ft 248 kts 208°
2026-05-05 05:05 49.96047 -119.67508 9093 ft 253 kts 184°
2026-05-05 05:05 49.94307 -119.67206 8861 ft 251 kts 171°
2026-05-05 05:05 49.92589 -119.66755 8604 ft 250 kts 171°
2026-05-05 05:05 49.90877 -119.66316 8332 ft 249 kts 171°
2026-05-05 05:06 49.89173 -119.65884 8090 ft 247 kts 171°
2026-05-05 05:06 49.87495 -119.65462 7798 ft 249 kts 171°
2026-05-05 05:06 49.85780 -119.65032 7504 ft 250 kts 171°
2026-05-05 05:06 49.84060 -119.64603 7206 ft 250 kts 172°
2026-05-05 05:07 49.82330 -119.64143 6898 ft 255 kts 168°
2026-05-05 05:07 49.80693 -119.63108 6571 ft 256 kts 145°
2026-05-05 05:07 49.79438 -119.61201 6291 ft 253 kts 122°
2026-05-05 05:07 49.78729 -119.58737 5977 ft 251 kts 101°
2026-05-05 05:08 49.78604 -119.56076 5670 ft 247 kts 79°
2026-05-05 05:08 49.79037 -119.53541 5378 ft 239 kts 59°
2026-05-05 05:08 49.79927 -119.51488 5121 ft 225 kts 45°
2026-05-05 05:08 49.81028 -119.49861 4865 ft 214 kts 41°
2026-05-05 05:09 49.82059 -119.48310 4601 ft 199 kts 44°
2026-05-05 05:09 49.82988 -119.46858 4339 ft 181 kts 48°
2026-05-05 05:09 49.83686 -119.45329 4073 ft 170 kts 60°
2026-05-05 05:09 49.84129 -119.43681 3934 ft 167 kts 70°
2026-05-05 05:10 49.84488 -119.42005 3961 ft 156 kts 64°
2026-05-05 05:10 49.84962 -119.40570 3882 ft 143 kts 53°
2026-05-05 05:10 49.85581 -119.39327 3479 ft 150 kts 44°
2026-05-05 05:10 49.86334 -119.38265 3103 ft 137 kts 33°
2026-05-05 05:11 49.87099 -119.37553 2914 ft 121 kts 24°
2026-05-05 05:11 49.87935 -119.37083 2825 ft 139 kts 11°
2026-05-05 05:11 49.88881 -119.36938 2616 ft 131 kts 358°
2026-05-05 05:11 49.89768 -119.36973 2423 ft 126 kts 353°
2026-05-05 05:12 49.90643 -119.37079 2234 ft 126 kts 352°
2026-05-05 05:12 49.91531 -119.37202 2080 ft 131 kts 353°
2026-05-05 05:12 49.92437 -119.37329 1850 ft 128 kts 353°
2026-05-05 05:12 49.93325 -119.37456 1707 ft 129 kts 355°
2026-05-05 05:13 49.94237 -119.37585 1551 ft 133 kts 356°
2026-05-05 05:13 49.95136 -119.37712 1420 ft 122 kts 357°
2026-05-05 05:13 49.95797 -119.37803 1420 ft 64 kts 355°
2026-05-05 05:13 49.96124 -119.37849 1420 ft 43 kts 355°
2026-05-05 05:14 49.96315 -119.37875 1421 ft 41 kts 355°
2026-05-05 05:14 49.96548 -119.37908 1420 ft 20 kts 355°
2026-05-05 05:14 49.96601 -119.38037 1420 ft 17 kts 242°
2026-05-05 05:14 49.96512 -119.38043 1421 ft 13 kts 174°
2026-05-05 05:15 49.96423 -119.38031 1418 ft 13 kts 175°
2026-05-05 05:15 49.96332 -119.38018 1419 ft 14 kts 176°
2026-05-05 05:15 49.96228 -119.38006 1419 ft 16 kts 175°
2026-05-05 05:15 49.96106 -119.37988 1419 ft 19 kts 175°
2026-05-05 05:16 49.95970 -119.37969 1419 ft 21 kts 174°
2026-05-05 05:16 49.95816 -119.37948 1419 ft 23 kts 175°
2026-05-05 05:16 49.95656 -119.37924 1418 ft 23 kts 175°
2026-05-05 05:16 49.95501 -119.37903 1421 ft 22 kts 175°
2026-05-05 05:17 49.95351 -119.37881 1418 ft 21 kts 175°
2026-05-05 05:17 49.95208 -119.37863 1418 ft 14 kts 175°
2026-05-05 05:17 49.95135 -119.37904 1419 ft 11 kts 209°
2026-05-05 05:17 49.95057 -119.37902 1419 ft 11 kts 174°
2026-05-05 05:18 49.95003 -119.37909 1419 ft 7 kts 185°
2026-05-05 05:18 49.94997 -119.37966 1419 ft 7 kts 304°
2026-05-05 05:18 49.95016 -119.38002 1419 ft 1 kts 309°
2026-05-05 05:18 49.95018 -119.38006 1419 ft 0 kts 309°
2026-05-05 05:20 49.95017 -119.38006 1419 ft 0 kts 309°